OneWeb SL0691

operational
NORAD ID: 61599 Int'l Des: 2024-188 Owner: ONEWEBE Country: UK Constellation: oneweb
LEOCIRCULARPOLARONEWEB_TYPE

OneWeb SL0691について

説明を読み込み中...

リアルタイム位置

3D地球を読み込み中...

次回通過

高度履歴

Altitude vs Time

uPlot chart will show altitude changes over time

軌道要素

1 61599U 24188F 26033.45576932 -.00000342 00000-0 -10012-2 0 9995
2 61599 87.8831 47.7618 0002167 82.6963 277.4411 13.11417909 66824
Epoch: Feb 2, 2026 • Age: 20 hours

現在のステータス

高度 1219.7 km
速度 7.24 km/s
衛星直下点 4.66°N, 167.72°E
打ち上げ日 Oct 20, 2024
運用期間 1.2 years
タイプ internet

技術仕様

分類 Payload
質量 148.00 kg
乾燥質量 140.00 kg
総質量 148.00 kg
長さ 1.30 m
直径 1.00 m
スパン 5.00 m
形状 Trapezoid+2 pan
製造者 ONEWUS
バスタイプ ARROW
フェーズステータス In Orbit
所有者/国 ONEWEBE/UK

大規模コンステレーション

Loading constellations...